Powrót do katalogu

FENGYUN 1C DEB

AktywnyPO
NORAD 30831·DEBRIS·🇨🇳 China

Wystrzelony May 10, 1999 z Taiyuan Satellite Launch Center

Loading…

Następne Przeloty (najbliższe 24 godziny)

TLE

ŚwieżeSource: Space-Track

Epoka: Sep 13, 2026, 07:20 UTC

1 30831U 99025AVR 26256.30623569  .00000512  00000-0  20815-3 0  9992
2 30831  99.3555  74.7212 0054320 323.5295  36.2190 14.31629038691788

Śledź FENGYUN 1C DEB w czasie rzeczywistym z AllMySat

Download on the App Store